Flag for India Weather past 2 weeks in Aligarh, Uttar Pradesh, India

Now
91 °F

Scattered clouds.


Feels Like: 105 °F
Forecast: 80 / 94 °F
Wind: 3 mph from East

Location: New Delhi Palam Airport

Current Time: Aug 2, 2015 at 12:33:33 PM

Latest Report: Aug 2, 2015 at 12:00 PM


Visibility: 2 mi

Pressure: 29.71 "Hg

Humidity: 63%

Dew point: 77 °F

Location of AligarhLocation

Historic Weather in Aligarh — Graph

°F

Aligarh temperature yesterday

Maximum temperature yesterday: 88 °F (at 2:00 PM)
Minimum temperature yesterday: 77 °F (at 7:00 PM)
Average temperature yesterday: 82 °F

Past Weeks' High & Low Weather Summary

 TemperatureHumidityPressure
High95 °F (Jul 21, 3:30 PM)100% (Jul 20, 8:30 AM)29.74 "Hg (Jul 20, 8:30 AM)
Low77 °F (Jul 20, 10:30 AM)52% (Jul 28, 6:30 PM)29.45 "Hg (Jul 18, 6:00 PM)
Average85 °F76%29.57 "Hg
* Reported Jul 18 10:30 AM — Aug 2 11:00 AM, Aligarh, Weather by CustomWeather, © 2015

Note: Actual official high and low records may vary slightly from our data, if they occured in-between our weather recording intervals... More about our weather records

Advertising

Aligarh weather history for previous 24 hours

 ConditionsComfort  
Time TempWeatherWind HumidityBarometerVisibility
11:00 AM
Sun, Aug 2
91 °FScattered clouds.3 mph63%29.74 "Hg2 mi
10:30 AM90 °FScattered clouds.3 mph67%29.74 "Hg2 mi
10:00 AM88 °FScattered clouds.3 mph70%29.74 "Hg2 mi
9:30 AM86 °FScattered clouds.6 mph70%29.71 "Hg2 mi
9:00 AM84 °FFog.6 mph74%29.71 "Hg2 mi
8:00 AM81 °FFog.5 mph89%29.71 "Hg2 mi
7:30 AM81 °FFog.6 mph74%29.71 "Hg1 mi
7:00 AM81 °FFog.No wind79%29.71 "Hg1 mi
6:30 AM79 °FFog.No wind79%29.68 "Hg1 mi
6:00 AM79 °FFog.No wind79%29.68 "Hg1 mi
5:30 AM79 °FFog.No wind79%29.68 "Hg1 mi
5:00 AM79 °FFog.No wind89%29.68 "Hg1 mi
4:30 AM79 °FFog.No wind89%29.68 "Hg1 mi
4:00 AM79 °FFog.No wind89%29.68 "Hg1 mi
3:30 AM79 °FFog.No wind89%29.68 "Hg1 mi
3:00 AM79 °FFog.5 mph89%29.68 "Hg1 mi
2:30 AM79 °FFog.3 mph89%29.68 "Hg1 mi
2:00 AM79 °FFog.No wind89%29.68 "Hg1 mi
1:30 AM79 °FFog.No wind89%29.68 "Hg1 mi
1:00 AM79 °FFog.No wind89%29.68 "Hg1 mi
12:30 AM79 °FFog.No wind89%29.68 "Hg1 mi
12:00 AM79 °FFog.No wind89%29.68 "Hg1 mi
11:30 PM
Sat, Aug 1
81 °FFog.No wind84%29.68 "Hg1 mi
11:00 PM81 °FFog.No wind84%29.68 "Hg1 mi
10:30 PM79 °FFog.No wind89%29.68 "Hg1 mi
10:00 PM79 °FFog.No wind89%29.68 "Hg1 mi
9:30 PM79 °FFog.No wind89%29.68 "Hg1 mi
9:00 PM79 °FFog.No wind89%29.68 "Hg1 mi
8:30 PM79 °FFog.No wind89%29.68 "Hg1 mi
8:00 PM77 °FFog.No wind94%29.65 "Hg1 mi
7:00 PM77 °FThunderstorms. More clouds than sun.7 mph94%29.62 "Hg1 mi
6:00 PM86 °FBroken clouds.9 mph75%29.59 "Hg2 mi
5:30 PM86 °FBroken clouds.6 mph75%29.59 "Hg2 mi
5:00 PM86 °FBroken clouds.7 mph75%29.62 "Hg2 mi
4:30 PM86 °FBroken clouds.No wind75%29.62 "Hg2 mi
4:00 PM84 °FBroken clouds.No wind79%29.62 "Hg2 mi
3:30 PM82 °FMore clouds than sun.9 mph84%29.65 "Hg2 mi
3:00 PM84 °FMore clouds than sun.9 mph74%29.65 "Hg2 mi
2:30 PM84 °FMore clouds than sun.9 mph74%29.65 "Hg2 mi
2:00 PM88 °FMore clouds than sun.6 mph66%29.65 "Hg2 mi
1:00 PM86 °FMore clouds than sun.5 mph70%29.68 "Hg2 mi
12:30 PM86 °FMore clouds than sun.3 mph70%29.68 "Hg2 mi
12:00 PM86 °FMore clouds than sun.5 mph70%29.68 "Hg2 mi
Weather by CustomWeather, © 2015

See weather overviewHow to use our weather pages